Hereford, TX

11:12 PM CDT on June 22, 2017 (GMT -0500)
Hereford Municipal

Weather History for KHRX - August, 2014

Change the Weather History Date:

Friday, August 15, 2014

  Actual Average (KCVN) Record (KCVN)
Temperature  
Mean Temperature 80 °F -  
Max Temperature 96 °F 87 °F 105 °F (1943)
Min Temperature 66 °F 62 °F 53 °F (1920)
Cooling Degree Days 16    
Growing Degree Days 30 (Base 50)    
Moisture  
Dew Point 60 °F    
Average Humidity 59    
Maximum Humidity 89    
Minimum Humidity 28    
Precipitation  
Precipitation 0.30 in - - ()
Sea Level Pressure  
Sea Level Pressure 30.04 in    
Wind  
Wind Speed 10 mph (South)    
Max Wind Speed 31 mph    
Max Gust Speed 45 mph    
Visibility 10 miles    
Events Rain , Thunderstorm    
Averages and records for this station are not official NWS values.
T = Trace of Precipitation, MM = Missing Value Source: NWS Daily Summary

Daily Weather History Graph

Daily Weather History Graph

Search for Another Location

Airport or City:

Trip Planner

Search our weather history database for the weather conditions in past years. The results will help you decide how hot, cold, wet, or windy it might be!

Date:

Astronomy

Aug. 15, 2014 Rise Set
Actual Time 7:09 AM CDT 8:37 PM CDT
Civil Twilight 6:42 AM CDT 9:04 PM CDT
Nautical Twilight 6:10 AM CDT 9:36 PM CDT
Astronomical Twilight 5:37 AM CDT 10:09 PM CDT
Moon 11:57 PM CDT (8/15) 12:39 PM CDT (8/15)
Length of Visible Light 14h 21m
Length of Day
13h 27m
Waning Gibbous, 69% of the Moon is Illuminated
Aug 15
Waning Gibbous
Aug 17
Last Quarter
Aug 25
New
Sep 2
First Quarter
Sep 8
Full

Hourly Weather History & Observations

Time (CDT) Temp. Heat Index Dew Point Humidity Pressure Visibility Wind Dir Wind Speed Gust Speed Precip Events Conditions
12:15 AM 69.6 °F - 56.8 °F 64% 30.07 in 10.0 mi South 8.1 mph - N/A   Clear
12:35 AM 69.1 °F - 57.0 °F 65% 30.08 in 10.0 mi South 6.9 mph - N/A   Clear
12:55 AM 68.7 °F - 56.8 °F 66% 30.07 in 10.0 mi SSW 5.8 mph - N/A   Clear
1:15 AM 68.2 °F - 56.8 °F 67% 30.07 in 10.0 mi South 6.9 mph - N/A   Clear
1:35 AM 68.2 °F - 56.7 °F 67% 30.08 in 10.0 mi SSW 5.8 mph - N/A   Clear
1:55 AM 68.2 °F - 56.1 °F 65% 30.07 in 10.0 mi South 6.9 mph - N/A   Clear
2:15 AM 68.0 °F - 56.3 °F 66% 30.07 in 10.0 mi South 6.9 mph - N/A   Clear
2:35 AM 68.2 °F - 56.3 °F 66% 30.06 in 10.0 mi SSW 6.9 mph - N/A   Scattered Clouds
2:55 AM 68.9 °F - 56.7 °F 65% 30.06 in 10.0 mi SSW 6.9 mph - N/A   Clear
3:15 AM 69.8 °F - 56.5 °F 63% 30.05 in 10.0 mi South 8.1 mph - N/A   Scattered Clouds
3:35 AM 67.1 °F - 56.7 °F 69% 30.05 in 10.0 mi South 6.9 mph - N/A   Scattered Clouds
3:55 AM 68.7 °F - 55.4 °F 62% 30.05 in 10.0 mi South 9.2 mph - N/A   Scattered Clouds
4:15 AM 68.0 °F - 55.9 °F 65% 30.05 in 10.0 mi South 9.2 mph - N/A   Clear
4:35 AM 68.0 °F - 56.3 °F 66% 30.05 in 10.0 mi South 9.2 mph - N/A   Scattered Clouds
4:55 AM 68.2 °F - 56.5 °F 66% 30.05 in 10.0 mi South 10.4 mph - N/A   Clear
5:15 AM 67.5 °F - 57.0 °F 69% 30.04 in 10.0 mi South 8.1 mph - N/A   Clear
5:35 AM 66.9 °F - 57.6 °F 72% 30.05 in 10.0 mi South 8.1 mph - N/A   Clear
5:55 AM 68.5 °F - 57.4 °F 67% 30.06 in 10.0 mi South 6.9 mph - N/A   Mostly Cloudy
6:15 AM 67.3 °F - 57.4 °F 70% 30.05 in 10.0 mi South 10.4 mph - N/A   Scattered Clouds
6:35 AM 67.1 °F - 56.5 °F 69% 30.05 in 10.0 mi South 9.2 mph - N/A   Clear
6:55 AM 68.9 °F - 55.8 °F 63% 30.05 in 10.0 mi South 12.7 mph - N/A   Clear
7:15 AM 69.1 °F - 55.8 °F 62% 30.06 in 10.0 mi South 13.8 mph - N/A   Clear
7:35 AM 69.3 °F - 55.9 °F 62% 30.07 in 10.0 mi South 13.8 mph - N/A   Clear
7:55 AM 70.2 °F - 55.9 °F 61% 30.07 in 10.0 mi South 16.1 mph - N/A   Clear
8:15 AM 71.2 °F - 56.3 °F 59% 30.07 in 10.0 mi South 13.8 mph 20.7 mph N/A   Clear
8:35 AM 73.0 °F - 56.1 °F 55% 30.07 in 10.0 mi South 16.1 mph 20.7 mph N/A   Clear
8:55 AM 72.5 °F - 55.8 °F 56% 30.07 in 10.0 mi South 13.8 mph 19.6 mph N/A   Clear
9:15 AM 74.7 °F - 56.5 °F 53% 30.07 in 10.0 mi South 11.5 mph - N/A   Clear
9:35 AM 77.7 °F - 55.6 °F 46% 30.08 in 10.0 mi SSW 15.0 mph 20.7 mph N/A   Clear
9:55 AM 80.6 °F 80.4 °F 54.5 °F 40% 30.07 in 10.0 mi SSW 20.7 mph 25.3 mph N/A   Clear
10:15 AM 82.4 °F 81.4 °F 53.4 °F 37% 30.07 in 10.0 mi SSW 17.3 mph 27.6 mph N/A   Clear
10:35 AM 84.2 °F 82.9 °F 54.3 °F 36% 30.08 in 10.0 mi SSW 17.3 mph 25.3 mph N/A   Clear
10:55 AM 85.5 °F 83.8 °F 54.1 °F 34% 30.07 in 10.0 mi SSW 17.3 mph 28.8 mph N/A   Clear
11:15 AM 86.5 °F 85.3 °F 56.3 °F 36% 30.07 in 10.0 mi SSW 18.4 mph 24.2 mph N/A   Clear
11:35 AM 87.6 °F 86.3 °F 56.7 °F 35% 30.06 in 10.0 mi SSW 18.4 mph - N/A   Clear
11:55 AM 89.1 °F 87.5 °F 56.7 °F 33% 30.06 in 10.0 mi SW 17.3 mph - N/A   Clear
12:15 PM 90.1 °F 88.8 °F 57.7 °F 33% 30.06 in 10.0 mi SSW 13.8 mph - N/A   Clear
12:35 PM 91.0 °F 89.7 °F 57.7 °F 32% 30.05 in 10.0 mi SW 15.0 mph - N/A   Clear
12:55 PM 91.2 °F 89.9 °F 57.6 °F 32% 30.05 in 10.0 mi SSW 13.8 mph 23.0 mph N/A   Clear
1:15 PM 92.3 °F 91.0 °F 57.6 °F 31% 30.04 in 10.0 mi SSW 16.1 mph 20.7 mph N/A   Clear
1:35 PM 93.7 °F 93.0 °F 58.5 °F 31% 30.03 in 10.0 mi SSW 16.1 mph 21.9 mph N/A   Clear
1:55 PM 94.1 °F 93.5 °F 58.8 °F 31% 30.02 in 10.0 mi South 11.5 mph 18.4 mph N/A   Clear
2:15 PM 94.5 °F 93.0 °F 56.5 °F 28% 30.02 in 10.0 mi SW 12.7 mph - N/A   Clear
2:35 PM 95.2 °F 93.9 °F 57.2 °F 28% 30.01 in 10.0 mi SSW 12.7 mph 23.0 mph N/A   Scattered Clouds
2:55 PM 94.8 °F 93.4 °F 56.8 °F 28% 30.00 in 10.0 mi SSW 17.3 mph 20.7 mph N/A   Mostly Cloudy
3:15 PM 95.4 °F 94.2 °F 57.2 °F 28% 30.00 in 10.0 mi SW 9.2 mph - N/A   Scattered Clouds
3:35 PM 92.5 °F 91.0 °F 56.5 °F 30% 29.99 in 10.0 mi WSW 12.7 mph - N/A Rain , Thunderstorm Light Thunderstorms and Rain
3:55 PM 80.4 °F 82.1 °F 64.2 °F 58% 29.98 in 10.0 mi NNW 17.3 mph 26.5 mph N/A Rain , Thunderstorm Light Thunderstorms and Rain
4:15 PM 73.9 °F - 65.1 °F 74% 29.99 in 4.0 mi North 31.1 mph 44.9 mph 0.06 in Rain , Thunderstorm Thunderstorms and Rain
4:35 PM 77.5 °F - 66.9 °F 70% 29.99 in 10.0 mi North - - 0.07 in Rain Rain
4:55 PM 75.7 °F - 68.0 °F 77% 29.98 in 7.0 mi North - - 0.11 in Rain , Thunderstorm Rain
5:15 PM 74.7 °F - 68.4 °F 81% 29.98 in 10.0 mi North - - N/A Rain Light Rain
5:35 PM 79.0 °F - 68.7 °F 71% 29.96 in 10.0 mi SSE 15.0 mph 20.7 mph N/A Thunderstorm Clear
5:55 PM 80.2 °F 82.7 °F 67.6 °F 65% 29.96 in 10.0 mi SSE 16.1 mph 20.7 mph N/A   Clear
6:15 PM 84.0 °F 86.8 °F 67.1 °F 57% 29.97 in 10.0 mi South 12.7 mph 18.4 mph N/A   Clear
6:35 PM 82.4 °F 84.8 °F 66.7 °F 59% 29.97 in 10.0 mi South 13.8 mph 19.6 mph N/A   Scattered Clouds
6:55 PM 79.2 °F - 65.7 °F 63% 29.97 in 10.0 mi South 11.5 mph - N/A   Scattered Clouds
7:15 PM 78.8 °F - 64.8 °F 62% 29.96 in 10.0 mi SSW 15.0 mph 20.7 mph N/A   Clear
7:35 PM 78.8 °F - 64.0 °F 60% 29.96 in 10.0 mi South 9.2 mph - N/A   Clear
7:55 PM 76.8 °F - 64.4 °F 65% 29.97 in 10.0 mi South 4.6 mph - N/A   Scattered Clouds
8:15 PM 76.1 °F - 64.4 °F 67% 29.98 in 10.0 mi SSW 4.6 mph - N/A   Mostly Cloudy
8:35 PM 73.2 °F - 65.5 °F 77% 30.04 in 3.0 mi North 4.6 mph - 0.18 in Rain , Thunderstorm Heavy Thunderstorms and Rain
9:15 PM 72.5 °F - 65.1 °F 78% 30.05 in 10.0 mi South 12.7 mph - 0.01 in Rain Light Rain
9:35 PM 71.8 °F - 65.7 °F 81% 30.05 in 10.0 mi SSW 10.4 mph - 0.01 in   Scattered Clouds
9:55 PM 70.9 °F - 66.4 °F 86% 30.07 in 10.0 mi North - - 0.01 in   Mostly Cloudy
10:15 PM 69.4 °F - 65.5 °F 87% 30.07 in 10.0 mi SE 10.4 mph - N/A   Scattered Clouds
10:35 PM 70.2 °F - 65.3 °F 85% 30.07 in 10.0 mi SSE 10.4 mph - N/A   Clear
11:15 PM 69.4 °F - 66.2 °F 89% 30.07 in 10.0 mi SSE 5.8 mph - N/A   Clear
11:35 PM 69.3 °F - 64.8 °F 86% 30.06 in 10.0 mi SE 10.4 mph - N/A   Clear
11:55 PM 68.5 °F - 64.9 °F 88% 30.05 in 10.0 mi SSE 8.1 mph - N/A   Clear